Weather History for Stanley, ID

Change the Weather History Date:

Wednesday, March 6, 2013

  Actual Average Record
Temperature  
Mean Temperature 31 °F 24 °F  
Max Temperature 40 °F 39 °F 53 °F (1979)
Min Temperature 21 °F 9 °F -25 °F (1971)
Degree Days  
Heating Degree Days 34 41  
Month to date heating degree days 243 249  
Since 1 July heating degree days 7328 7783  
Cooling Degree Days 0 0  
Month to date cooling degree days 0 0  
Year to date cooling degree days 0 0  
Moisture  
Dew Point 24 °F    
Average Humidity 70    
Maximum Humidity 92    
Minimum Humidity 48    
Precipitation  
Precipitation 0.33 in 0.04 in 1.14 in (1991)
Month to date precipitation 0.46 0.24  
Year to date precipitation 1.70 3.55  
Sea Level Pressure  
Sea Level Pressure 29.70 in    
Wind  
Wind Speed 7 mph (SE)    
Max Wind Speed 17 mph    
Max Gust Speed 25 mph    
T = Trace of Precipitation, MM = Missing Value Source: NWS Daily Summary

Daily Weather History Graph

Daily Weather History Graph

Search for Another Location

Airport:

Trip Planner

Search our weather history database for the weather conditions in past years. The results will help you decide how hot, cold, wet, or windy it might be!

Date:

Astronomy

Mar. 06, 2013 Rise Set
Actual Time 7:07 AM MST 6:34 PM MST
Civil Twilight 6:38 AM MST 7:03 PM MST
Nautical Twilight 6:05 AM MST 7:37 PM MST
Astronomical Twilight 5:31 AM MST 8:11 PM MST
Moon 3:29 AM MST (3/6) 1:12 PM MST (3/6)
Length of Visible Light 12h 25m
Length of Day
11h 27m
Waning Crescent, 29% of the Moon is Illuminated
Mar 6
Waning Crescent
Mar 11
New
Mar 19
First Quarter
Mar 27
Full
Apr 2
Last Quarter

Hourly Weather History & Observations

Time (MST) Temp. Windchill Dew Point Humidity Pressure Visibility Wind Dir Wind Speed Gust Speed Precip Events Conditions
12:51 AM 28.9 °F - 17.1 °F 61% 29.81 in - Calm Calm - N/A   Unknown
1:51 AM 30.0 °F 21.1 °F 21.0 °F 69% 29.78 in - SSE 10.4 mph - N/A   Unknown
2:51 AM 30.0 °F 22.4 °F 26.1 °F 85% 29.74 in - South 8.1 mph - 0.01 in   Unknown
3:51 AM 30.9 °F 24.3 °F 26.1 °F 82% 29.68 in - SSE 6.9 mph - N/A   Unknown
4:51 AM 30.9 °F 23.5 °F 28.0 °F 89% 29.64 in - SE 8.1 mph 17.3 mph N/A   Unknown
5:51 AM 32.0 °F 24.8 °F 27.0 °F 82% 29.63 in - South 8.1 mph - 0.01 in   Unknown
6:51 AM 30.9 °F 22.8 °F 28.0 °F 89% 29.65 in - SSE 9.2 mph - 0.02 in   Unknown
7:51 AM 30.0 °F 21.1 °F 28.0 °F 92% 29.67 in - SE 10.4 mph 17.3 mph N/A   Unknown
8:51 AM 30.9 °F 22.2 °F 28.0 °F 89% 29.65 in - South 10.4 mph 18.4 mph 0.01 in   Unknown
9:51 AM 33.1 °F 26.9 °F 27.0 °F 78% 29.62 in - SSE 6.9 mph - N/A   Unknown
10:51 AM 36.0 °F 30.3 °F 26.1 °F 67% 29.61 in - SE 6.9 mph - N/A   Unknown
11:51 AM 32.0 °F 23.0 °F 28.0 °F 85% 29.64 in - ESE 11.5 mph 18.4 mph 0.05 in   Unknown
12:51 PM 39.0 °F 35.7 °F 21.0 °F 49% 29.61 in - Variable 4.6 mph 16.1 mph N/A   Unknown
1:51 PM 39.0 °F 32.8 °F 21.0 °F 49% 29.56 in - SE 9.2 mph 19.6 mph N/A   Unknown
2:51 PM 30.0 °F 26.5 °F 28.0 °F 92% 29.66 in - North 3.5 mph - 0.03 in   Unknown
3:51 PM 30.9 °F 21.7 °F 28.0 °F 89% 29.65 in - ESE 11.5 mph - 0.03 in   Unknown
4:51 PM 28.9 °F 20.4 °F 26.1 °F 89% 29.67 in - SE 9.2 mph - 0.04 in   Unknown
5:51 PM 28.9 °F 21.1 °F 23.0 °F 78% 29.68 in - NW 8.1 mph - N/A   Unknown
6:51 PM 26.1 °F - 24.1 °F 92% 29.73 in - Calm Calm - 0.04 in   Unknown
7:51 PM 25.0 °F 15.5 °F 21.9 °F 88% 29.74 in - SE 9.2 mph - 0.06 in   Unknown
8:51 PM 25.0 °F 19.3 °F 23.0 °F 92% 29.78 in - ESE 4.6 mph - 0.01 in   Unknown
9:51 PM 24.1 °F 19.7 °F 19.9 °F 84% 29.80 in - South 3.5 mph - 0.02 in   Unknown
10:51 PM 24.1 °F 16.0 °F 17.1 °F 75% 29.82 in - East 6.9 mph - N/A   Unknown
11:51 PM 21.9 °F - 16.0 °F 78% 29.87 in - Calm Calm - N/A   Unknown